Location: Unspecified
(51.5147°N, 7.4673°E)
Time: 06:55:28
(UTC+01:00)

A-11 Canister half - Pass Details

Date: 26 February 2026
Orbit: 1524 x 1683 km, 47.3° (Epoch: 14 March)

Event Time Altitude Azimuth Distance (km) Brightness Sun altitude
Rises 21:22:46 0° 287° (WNW) 4,685 12.7 -30.7°
Reaches altitude 10° 21:26:25 10° 275° (W) 3,694 11.7 -31.2°
Maximum altitude 21:33:36 26° 224° (SW) 2,642 10.3 -32.2°
Enters shadow 21:36:52 21° 195° (SSW) 2,894 10.2 -32.6°
